Wetbulb
59.55 59.38 58.97 59.20 59.26 59.01 58.83 59.24 59.16 59.49 60.07 60.05 60.02 60.10 60.16 60.01 59.92 59.81 60.13 60.91 61.38 61.73 62.17 62.78 62.46 62.42 59.39 53.08 52.30 59.23 68.06 66.13 62.17 58.67 55.88 53.80 49.63 48.11 44.71 46.31 48.05 44.77 47.26 49.92 50.22 50.48 49.97
60.19 59.86 59.28 59.09 58.75 58.91 58.93 58.80 59.13 59.15 59.76 59.63 59.75 59.73 59.76 59.76 59.50 59.31 59.68 60.66 61.16 61.51 62.42 62.31 62.17 61.66 55.98 49.35 56.99 58.94 60.28 57.80 58.94 57.36 55.21 53.74 50.97 51.54 48.04 47.53 45.35 47.98 48.39 48.46 49.69 49.69 50.04
60.62 60.60 60.10 59.41 58.98 59.11 59.18 59.13 59.07 59.54 59.84 59.42 59.47 59.39 59.55 59.90 59.91 59.66 59.61 60.53 60.73 62.10 62.20 61.90 61.99 60.72 54.97 53.42 56.83 56.95 58.60 57.12 57.99 58.23 55.37 55.73 54.46 50.65 49.85 46.98 50.95 49.39 44.96 46.87 48.23 49.08 47.99
61.34 60.79 60.71 60.53 59.89 59.70 59.75 59.36 59.21 59.97 59.92 59.58 59.19 59.00 59.34 59.89 59.86 59.23 59.51 60.15 60.84 62.09 61.53 61.50 62.03 57.09 50.77 57.73 56.60 57.78 58.03 56.81 58.41 58.24 57.59 56.89 56.00 53.34 50.33 50.60 48.98 45.61 43.68 38.69 46.28 48.49 48.48
62.13 61.84 61.52 60.99 60.78 60.42 60.15 59.71 59.72 60.17 60.10 59.57 58.98 58.64 58.93 59.37 59.53 59.56 59.34 59.87 60.54 62.39 62.62 62.24 56.78 53.09 49.82 59.45 54.62 56.91 57.00 55.67 56.12 56.53 56.33 58.08 54.83 50.16 49.84 43.90 38.18 40.19 34.05 37.63 41.67 48.24 47.55
63.21 62.80 62.58 62.15 61.49 60.94 60.52 60.02 59.93 60.39 60.28 59.61 59.07 59.06 59.25 59.19 59.19 59.45 59.00 59.32 59.79 59.51 59.11 60.73 60.16 48.42 52.61 51.07 55.56 56.48 55.62 57.07 54.41 54.13 53.46 51.88 48.47 44.10 42.84 37.89 31.04 34.86 34.80 38.21 37.47 44.62 45.53
64.20 63.27 62.97 62.48 62.17 61.44 60.95 60.52 60.21 60.45 60.37 59.94 59.55 59.01 58.86 58.92 59.09 58.79 55.51 52.36 49.29 48.47 51.50 49.67 50.06 49.38 51.35 53.81 56.22 54.10 55.88 54.43 53.86 50.15 43.37 47.97 40.55 36.75 38.56 41.05 42.23 40.35 38.19 37.30 41.24 46.61 43.50
62.00 63.51 63.65 62.95 62.41 62.09 61.52 61.12 60.53 60.51 60.53 60.14 59.74 58.92 58.47 58.53 58.39 57.63 53.95 49.94 50.27 51.47 47.35 53.33 52.93 52.39 53.94 53.60 50.14 52.57 55.02 48.15 46.82 42.02 44.36 40.49 37.40 42.42 44.59 44.18 42.52 40.48 38.18 37.43 42.98 46.96 43.31
60.78 61.53 62.10 63.55 62.99 62.45 62.09 61.55 60.89 60.42 60.58 60.26 59.83 58.79 58.16 58.30 57.58 53.65 52.23 51.98 54.54 54.50 46.30 50.82 52.44 51.23 53.04 53.06 49.45 49.96 51.29 48.00 44.54 41.97 41.87 36.83 42.06 46.44 44.53 41.85 40.57 38.96 37.75 37.82 40.06 44.80 44.68
58.81 59.50 60.55 61.51 62.45 62.93 62.17 61.64 60.99 60.32 60.39 59.95 59.39 58.30 57.96 58.14 52.89 51.99 51.39 56.07 55.65 55.10 39.84 45.01 48.41 51.68 53.40 52.91 48.14 53.16 52.37 48.78 45.45 42.65 42.66 40.37 44.75 43.96 41.60 41.16 40.86 35.82 42.86 42.82 42.53 39.83 33.24
56.49 57.53 59.14 59.58 60.48 60.20 62.17 61.34 61.08 60.40 60.06 59.46 58.91 57.81 57.34 57.49 48.33 50.42 52.98 56.01 55.13 52.22 29.89 47.68 48.81 54.28 51.94 48.66 49.66 49.94 52.32 48.47 43.72 42.93 40.43 38.30 40.58 40.19 40.20 40.85 42.47 39.34 43.91 42.38 42.29 39.09 36.39
54.98 55.96 57.22 58.58 58.98 59.86 59.42 60.95 60.89 60.27 59.70 59.27 58.71 57.58 57.24 52.67 51.59 52.44 54.95 55.34 53.06 39.95 32.53 44.78 47.97 46.43 45.24 47.90 47.99 49.76 48.50 49.43 48.32 43.73 42.46 41.02 44.56 43.20 41.27 43.43 43.96 45.13 42.88 42.96 41.47 37.94 31.05
54.34 54.77 56.52 57.24 58.06 58.70 59.38 59.29 60.81 60.80 60.14 59.39 58.42 57.38 56.02 55.18 46.66 53.72 54.99 51.46 36.19 33.76 46.36 43.01 43.73 46.02 43.95 43.80 44.80 44.92 43.92 41.37 38.21 34.05 34.33 39.99 40.86 43.65 45.10 39.99 43.75 41.02 35.87 25.15 26.91 26.32 27.07
53.96 54.75 55.84 56.25 56.92 57.58 59.58 59.51 59.95 61.07 60.37 59.31 57.86 56.97 55.60 54.40 51.43 50.72 50.89 44.05 34.23 42.40 42.46 47.13 45.62 44.27 41.15 43.38 42.25 43.47 41.55 39.35 41.46 39.09 35.35 33.22 32.27 40.08 41.89 40.86 37.48 37.75 36.84 25.81 16.40 21.88 26.45
54.52 55.13 55.24 55.61 56.02 56.66 58.08 58.36 58.41 59.76 59.96 58.42 56.41 51.30 50.63 50.37 52.88 49.48 44.61 36.28 37.38 42.50 45.98 43.59 43.26 38.58 39.02 42.16 41.43 40.68 39.34 39.63 40.45 39.39 34.07 33.57 34.66 41.36 41.75 42.47 41.25 37.50 33.31 39.86 31.93 33.34 28.33
54.53 54.79 54.70 54.99 55.34 55.59 56.64 57.28 58.00 57.63 59.59 57.08 50.11 46.60 45.78 50.34 49.19 47.48 40.05 39.33 41.84 47.23 46.97 44.34 38.31 40.38 36.74 38.97 38.01 38.39 38.74 41.80 41.53 42.92 40.60 37.14 31.17 39.51 41.95 42.25 43.49 38.94 41.77 32.95 33.50 20.47 22.75
54.15 54.60 54.61 54.49 54.56 54.84 55.70 56.72 57.37 56.99 56.97 56.49 49.01 43.11 47.80 50.50 49.05 41.92 35.41 38.28 43.98 47.99 47.74 43.57 40.72 39.81 40.32 38.95 38.75 37.83 38.94 41.20 43.97 42.62 41.39 37.88 34.62 35.83 38.87 37.18 36.45 37.68 35.83 35.92 34.81 33.18 26.19
52.37 52.71 53.86 54.27 54.09 54.04 54.87 56.07 56.80 57.08 55.60 54.54 47.85 37.27 47.92 52.08 39.69 37.21 36.58 40.21 46.51 46.26 46.65 45.15 43.58 43.58 41.09 40.40 38.86 38.66 38.81 41.34 44.43 43.06 39.08 38.96 35.21 31.37 34.22 39.41 41.07 38.24 35.09 34.14 28.18 28.33 30.49
52.21 52.11 52.68 53.51 53.69 53.53 53.96 55.24 55.74 55.86 54.75 51.91 44.29 42.89 48.79 48.30 34.24 34.57 35.94 40.15 43.35 45.41 44.18 44.09 42.36 44.58 43.53 40.89 37.82 40.07 39.63 43.65 43.48 42.07 39.53 39.64 34.28 28.97 30.73 35.40 37.79 34.92 37.92 36.34 34.30 32.13 30.10
51.37 51.55 51.64 51.91 53.09 52.83 53.25 54.29 54.75 55.37 55.04 53.06 44.72 35.73 42.93 45.69 43.18 36.10 35.36 37.15 38.03 44.54 45.28 45.05 43.35 43.83 41.58 40.07 40.69 38.51 37.98 41.92 42.62 43.96 48.02 43.87 35.53 32.99 29.55 32.73 35.65 32.96 36.27 35.98 33.13 26.51 28.86
50.98 50.93 51.49 51.81 52.22 52.63 53.18 53.57 54.55 55.00 54.66 51.91 45.12 36.96 42.27 36.48 39.52 40.25 37.52 36.92 37.23 37.79 44.49 44.49 41.24 41.99 40.38 36.71 36.86 37.33 38.63 38.71 41.40 46.38 40.67 38.54 32.96 35.45 36.68 37.83 36.84 35.67 36.10 36.26 32.82 32.13 28.35
50.39 50.77 51.12 51.44 51.66 51.93 52.50 52.98 53.63 54.36 53.48 48.62 42.10 41.17 43.24 39.59 40.02 39.45 39.36 36.81 37.05 40.19 41.97 41.30 40.30 42.17 41.26 37.93 38.86 36.48 38.18 36.79 36.38 39.09 37.96 37.72 32.32 34.07 33.25 37.48 36.92 34.99 36.87 36.72 35.81 35.13 33.34
50.13 50.38 50.59 51.05 51.23 51.37 51.81 52.14 52.46 52.97 51.92 47.21 48.44 48.66 45.12 39.43 37.94 37.01 36.84 37.27 39.44 41.60 43.16 45.74 43.19 41.97 40.73 41.73 43.06 42.19 42.09 41.38 40.30 37.31 36.51 35.15 33.87 32.29 28.94 35.38 35.35 31.95 35.70 36.74 37.03 37.23 35.84
49.81 49.95 50.17 50.58 50.88 51.03 51.31 51.51 52.27 52.39 51.90 49.71 48.82 47.57 43.40 37.34 37.75 36.95 38.61 38.92 38.27 40.52 41.39 43.89 44.73 42.24 44.03 45.36 44.61 42.47 40.37 40.22 40.60 40.10 40.80 35.66 34.63 33.09 28.04 31.87 25.80 36.71 39.65 40.59 38.76 39.90 39.69
49.45 49.62 49.72 50.05 50.39 50.47 50.86 51.21 51.80 52.32 51.96 49.54 49.38 45.89 43.26 38.26 39.56 39.62 39.29 39.64 39.90 40.39 41.12 43.78 44.15 46.03 46.08 42.64 36.68 34.55 33.76 34.65 36.64 37.96 37.12 37.38 35.31 29.68 26.69 27.25 34.26 36.49 39.16 38.28 37.50 37.41 41.50
49.21 49.36 49.48 49.72 49.98 50.04 50.26 50.69 51.25 51.69 51.96 49.40 49.01 49.70 44.70 37.48 40.00 42.50 40.29 39.81 38.24 38.12 38.50 41.15 43.55 46.98 43.98 39.22 35.98 28.93 27.71 32.11 30.14 31.75 36.33 36.84 35.01 31.45 28.32 25.60 26.48 36.74 40.36 42.56 40.39 31.56 41.32
48.82 49.00 49.21 49.46 49.65 49.73 50.05 50.43 50.98 51.44 51.66 49.65 48.73 49.97 45.34 38.27 40.43 43.16 40.93 39.63 40.76 40.21 38.11 38.58 40.45 40.50 41.97 35.86 33.06 30.14 31.25 36.71 28.67 28.69 28.30 29.60 29.12 27.00 26.92 26.22 33.29 41.05 41.23 41.63 30.86 34.17 41.07
48.40 48.61 48.79 48.93 49.10 49.33 49.76 50.26 50.70 51.43 52.14 49.53 46.46 50.13 46.04 41.86 42.35 45.24 47.52 44.58 41.21 41.92 38.11 38.71 39.14 38.88 36.32 34.64 33.58 32.89 31.49 34.86 32.53 33.38 30.81 29.33 26.48 26.12 28.46 25.97 27.27 40.85 39.24 36.14 38.83 40.07 41.73
48.05 48.22 48.40 48.57 48.75 49.00 49.39 49.92 50.45 51.04 51.52 50.98 44.03 49.63 50.39 44.59 43.89 47.43 47.97 50.85 46.88 43.10 42.72 40.19 40.97 38.72 39.47 36.35 35.57 35.33 33.70 34.12 34.45 29.29 35.41 31.88 34.93 31.06 32.80 33.56 40.32 42.30 40.27 41.59 42.98 42.15 41.88
MSLP
1019.93 1019.91 1019.67 1019.77 1019.77 1019.56 1019.40 1019.17 1018.85 1018.71 1018.79 1018.67 1018.33 1017.94 1017.68 1017.25 1016.91 1016.46 1016.07 1015.59 1015.42 1015.16 1014.72 1014.71 1014.68 1014.41 1014.00 1013.46 1012.26 1011.57 1011.65 1011.65 1011.56 1011.44 1011.52 1011.57 1011.79 1012.17 1012.53 1012.51 1012.20 1012.06 1011.93 1011.70 1011.25 1011.00 1010.89
1019.89 1019.78 1019.82 1019.58 1019.49 1019.45 1019.37 1019.12 1019.08 1018.73 1018.43 1018.49 1018.23 1017.79 1017.39 1017.01 1016.63 1016.44 1015.79 1015.52 1015.23 1014.73 1014.57 1014.56 1014.53 1014.43 1013.86 1012.68 1011.11 1011.24 1011.41 1011.36 1011.44 1011.46 1011.58 1011.55 1011.86 1012.13 1012.46 1012.44 1012.41 1011.81 1011.65 1011.50 1011.10 1010.86 1010.70
1019.63 1019.62 1019.61 1019.51 1019.38 1019.36 1019.07 1019.09 1018.86 1018.76 1018.36 1018.00 1018.05 1017.78 1017.34 1016.93 1016.51 1016.05 1015.69 1015.41 1014.80 1014.45 1014.30 1014.30 1014.40 1014.05 1013.34 1011.58 1010.66 1010.96 1010.97 1011.07 1011.16 1011.36 1011.59 1011.58 1011.86 1012.34 1012.45 1012.45 1011.98 1011.86 1012.00 1011.23 1010.62 1010.52 1010.66
1019.57 1019.23 1019.11 1019.24 1019.13 1018.96 1019.01 1018.67 1018.74 1018.65 1018.39 1017.98 1017.73 1017.59 1017.28 1016.88 1016.47 1015.82 1015.51 1014.94 1014.49 1014.19 1014.09 1014.29 1014.28 1013.92 1012.52 1010.61 1010.58 1010.71 1010.82 1011.01 1011.05 1011.11 1011.33 1011.51 1011.73 1012.21 1012.50 1012.32 1012.23 1012.27 1012.43 1012.15 1010.64 1010.58 1010.82
1019.08 1019.32 1019.10 1018.76 1018.94 1018.77 1018.72 1018.67 1018.25 1018.26 1018.27 1018.03 1017.59 1017.33 1017.13 1016.84 1016.30 1015.69 1015.05 1014.51 1014.24 1014.01 1013.99 1014.14 1014.26 1013.66 1011.85 1010.63 1010.71 1010.53 1010.57 1010.88 1010.96 1010.99 1011.07 1011.34 1011.70 1012.21 1012.38 1012.89 1013.26 1013.10 1013.20 1012.47 1011.56 1011.08 1011.07
1018.60 1018.52 1018.84 1018.72 1018.40 1018.61 1018.40 1018.52 1018.32 1017.95 1017.91 1017.83 1017.55 1017.20 1016.94 1016.57 1016.02 1015.47 1014.69 1014.17 1013.99 1013.87 1013.54 1013.74 1013.33 1013.16 1011.35 1010.61 1010.38 1010.34 1010.46 1010.65 1010.91 1011.05 1011.48 1011.66 1012.06 1012.39 1012.96 1013.31 1013.88 1013.61 1013.34 1012.66 1012.19 1011.59 1011.31
1018.19 1018.21 1018.02 1018.39 1018.24 1018.07 1018.25 1018.10 1018.17 1017.96 1017.69 1017.63 1017.49 1017.15 1016.77 1016.36 1015.76 1015.51 1014.75 1013.96 1014.22 1014.01 1013.41 1012.43 1011.88 1011.23 1010.46 1010.39 1010.21 1010.30 1010.24 1010.51 1010.89 1011.38 1011.82 1011.82 1012.49 1012.69 1012.74 1012.84 1012.96 1013.15 1013.11 1012.94 1012.44 1011.88 1011.71
1018.27 1017.79 1017.67 1017.61 1017.93 1017.73 1017.70 1017.81 1017.79 1017.68 1017.60 1017.40 1017.27 1017.08 1016.68 1016.19 1015.52 1015.26 1015.27 1014.68 1014.09 1014.07 1013.16 1011.44 1011.10 1010.74 1010.32 1010.27 1010.41 1010.25 1010.10 1010.71 1010.97 1011.57 1011.58 1012.09 1012.17 1012.05 1012.12 1012.27 1012.67 1012.82 1013.07 1013.05 1012.41 1011.98 1012.05
1018.35 1017.91 1017.54 1017.20 1017.11 1017.37 1017.28 1017.29 1017.42 1017.41 1017.22 1017.08 1016.91 1016.93 1016.74 1016.10 1015.39 1014.72 1014.38 1013.94 1013.58 1013.57 1013.42 1011.06 1010.37 1010.11 1010.07 1010.25 1010.28 1010.30 1010.33 1010.67 1011.04 1011.53 1011.72 1011.98 1011.96 1011.72 1011.90 1012.24 1012.57 1012.80 1012.98 1013.03 1013.07 1012.41 1011.87
1018.19 1018.12 1017.70 1017.23 1016.82 1016.64 1016.77 1016.75 1016.77 1016.93 1016.98 1016.79 1016.65 1016.47 1016.59 1016.17 1015.51 1014.51 1013.87 1013.52 1013.28 1013.55 1013.24 1011.02 1010.09 1009.50 1009.77 1010.02 1010.40 1010.16 1010.41 1010.90 1011.11 1011.31 1011.55 1011.77 1011.64 1011.78 1011.97 1012.33 1012.55 1012.76 1012.55 1012.77 1013.09 1013.29 1013.29
1018.13 1017.69 1017.69 1017.39 1016.82 1016.54 1016.32 1016.20 1016.34 1016.36 1016.46 1016.45 1016.43 1016.43 1016.29 1016.66 1016.36 1014.66 1013.78 1013.31 1013.24 1013.51 1012.65 1010.40 1009.72 1009.14 1009.48 1010.24 1010.36 1010.43 1010.47 1010.88 1011.24 1011.54 1012.03 1011.94 1011.83 1012.01 1012.13 1012.28 1012.46 1012.67 1012.43 1012.77 1013.30 1013.86 1014.22
1017.87 1017.72 1017.39 1017.21 1017.00 1016.45 1016.17 1015.94 1015.69 1015.83 1015.90 1016.09 1016.02 1016.08 1016.45 1015.67 1016.22 1014.27 1013.24 1013.24 1013.44 1013.75 1011.67 1009.92 1009.53 1009.51 1010.03 1010.22 1010.27 1010.65 1010.80 1011.06 1011.11 1011.62 1011.81 1011.95 1011.93 1012.05 1012.09 1012.03 1012.09 1012.31 1012.73 1013.05 1013.82 1014.82 1015.45
1017.19 1017.25 1017.07 1016.91 1016.65 1016.35 1016.06 1015.48 1015.44 1015.20 1015.33 1015.55 1015.70 1015.66 1016.25 1016.16 1014.82 1013.72 1013.55 1013.85 1014.11 1012.73 1010.17 1009.81 1009.59 1009.65 1010.06 1010.37 1010.53 1010.71 1011.05 1011.48 1011.82 1012.21 1012.33 1011.97 1012.13 1012.04 1011.99 1012.19 1012.21 1012.89 1013.90 1015.23 1016.13 1016.55 1016.42
1017.10 1016.59 1016.52 1016.49 1016.22 1015.83 1015.43 1015.22 1015.02 1014.65 1014.70 1014.98 1015.23 1015.41 1015.14 1015.34 1014.46 1014.24 1014.25 1014.48 1013.37 1010.45 1009.50 1009.08 1009.11 1009.76 1010.19 1010.32 1010.63 1010.90 1011.24 1011.73 1011.93 1012.28 1012.65 1012.52 1012.48 1012.15 1011.97 1012.25 1012.77 1013.37 1014.57 1016.39 1017.71 1018.14 1017.53
1016.28 1016.17 1016.06 1015.92 1015.77 1015.43 1015.20 1014.89 1014.72 1014.26 1013.95 1014.35 1014.93 1015.16 1014.84 1013.53 1014.17 1014.60 1014.81 1014.06 1011.28 1009.45 1008.43 1008.65 1009.40 1010.02 1010.31 1010.38 1010.69 1011.10 1011.41 1011.80 1012.10 1012.33 1012.90 1012.76 1012.57 1012.24 1012.08 1012.16 1012.84 1013.37 1014.54 1015.74 1017.32 1018.00 1017.94
1015.71 1015.55 1015.29 1015.32 1015.14 1014.96 1014.63 1014.67 1014.26 1014.00 1013.57 1013.64 1014.29 1014.32 1013.20 1011.97 1013.30 1014.49 1014.35 1012.24 1010.19 1008.21 1007.61 1008.01 1008.49 1009.03 1009.99 1010.51 1011.03 1011.33 1011.43 1011.65 1012.11 1012.35 1012.69 1012.98 1013.01 1012.40 1012.40 1012.50 1012.61 1013.06 1014.16 1015.49 1016.87 1018.20 1018.12
1014.98 1014.79 1014.42 1014.40 1014.32 1014.28 1014.24 1013.89 1013.70 1013.67 1013.47 1012.73 1013.50 1013.08 1010.76 1010.82 1012.52 1014.11 1012.69 1010.92 1009.47 1007.80 1007.18 1007.42 1007.83 1008.52 1009.13 1010.02 1010.70 1011.17 1011.42 1011.83 1011.90 1012.54 1012.82 1012.97 1013.25 1013.05 1012.72 1012.73 1012.66 1013.26 1013.78 1014.77 1015.86 1017.01 1017.87
1014.04 1014.04 1013.63 1013.46 1013.49 1013.43 1013.43 1013.33 1013.33 1013.10 1013.45 1012.60 1012.21 1011.76 1009.44 1009.82 1012.09 1012.11 1011.15 1009.92 1009.00 1007.65 1007.10 1007.11 1007.18 1007.67 1008.33 1009.39 1010.33 1011.00 1011.38 1011.50 1011.79 1012.35 1013.08 1013.28 1013.65 1013.72 1013.27 1012.81 1012.59 1012.82 1013.41 1014.38 1015.85 1016.76 1016.96
1013.29 1013.08 1012.82 1012.55 1012.49 1012.52 1012.66 1012.57 1012.71 1012.63 1013.04 1012.59 1012.13 1011.50 1009.32 1009.21 1009.73 1010.42 1009.89 1009.33 1008.70 1007.56 1007.06 1007.21 1007.40 1007.28 1007.70 1008.97 1010.13 1010.69 1011.51 1012.02 1012.09 1012.64 1013.09 1013.50 1013.97 1014.09 1013.82 1013.65 1012.96 1013.01 1013.29 1013.85 1014.87 1015.80 1016.27
1012.49 1012.18 1011.87 1011.70 1011.57 1011.68 1011.76 1011.73 1011.84 1011.84 1012.28 1012.44 1011.73 1012.24 1010.89 1009.45 1008.74 1008.97 1009.12 1008.24 1007.78 1007.22 1007.01 1006.74 1007.07 1007.29 1007.95 1008.96 1009.63 1010.93 1012.00 1012.54 1012.70 1013.07 1013.45 1013.65 1014.17 1013.90 1013.53 1013.17 1012.89 1012.96 1013.07 1013.52 1014.37 1015.60 1015.38
1011.58 1011.22 1011.01 1010.82 1010.67 1010.71 1010.81 1010.87 1010.95 1011.05 1011.57 1012.24 1011.12 1010.63 1009.92 1009.92 1008.91 1009.00 1008.53 1007.27 1006.82 1006.64 1006.53 1006.58 1007.08 1006.96 1007.83 1009.28 1010.10 1010.99 1012.02 1013.00 1013.32 1013.53 1013.92 1014.26 1014.57 1014.08 1013.39 1012.99 1012.69 1012.61 1012.74 1013.11 1013.79 1014.08 1014.62
1010.49 1010.31 1010.07 1009.93 1009.84 1009.84 1009.88 1010.04 1010.17 1010.21 1010.92 1011.37 1010.53 1010.23 1010.35 1009.40 1008.54 1008.60 1008.22 1006.78 1005.81 1005.61 1005.54 1006.11 1006.54 1007.02 1007.44 1008.48 1008.95 1010.25 1011.25 1012.33 1012.84 1014.01 1014.19 1014.42 1014.58 1014.20 1013.58 1012.58 1012.23 1012.19 1011.93 1012.23 1012.63 1013.02 1013.31
1009.57 1009.37 1009.25 1009.08 1009.08 1009.02 1009.04 1009.14 1009.37 1009.53 1010.22 1009.83 1009.59 1009.50 1009.24 1009.43 1007.90 1007.31 1005.92 1005.61 1005.06 1005.03 1004.72 1004.86 1005.91 1006.98 1007.38 1007.58 1008.21 1008.90 1009.84 1010.80 1011.68 1012.84 1014.01 1014.46 1014.74 1014.72 1014.23 1013.05 1012.45 1011.99 1010.78 1010.98 1011.50 1011.69 1012.13
1008.60 1008.50 1008.44 1008.28 1008.21 1008.17 1008.26 1008.37 1008.52 1008.84 1009.20 1009.42 1009.21 1009.39 1008.45 1008.18 1007.88 1005.98 1005.25 1004.98 1005.03 1004.49 1004.60 1004.68 1005.25 1006.29 1007.09 1007.53 1008.33 1009.48 1010.74 1011.48 1012.06 1012.67 1012.92 1013.95 1014.68 1014.89 1014.86 1013.83 1012.83 1010.57 1009.79 1009.78 1010.29 1010.60 1010.96
1007.70 1007.65 1007.57 1007.53 1007.37 1007.37 1007.46 1007.59 1007.74 1008.01 1008.29 1008.71 1008.78 1008.90 1008.27 1007.16 1006.96 1006.52 1005.15 1004.37 1004.43 1004.35 1004.59 1004.07 1004.41 1004.95 1006.23 1007.25 1009.79 1011.22 1012.25 1012.73 1012.89 1013.21 1013.45 1013.64 1014.55 1015.26 1015.28 1014.38 1012.43 1010.76 1009.85 1009.77 1009.73 1009.71 1009.81
1006.85 1006.79 1006.75 1006.70 1006.57 1006.58 1006.70 1006.81 1006.89 1007.17 1007.43 1007.91 1007.90 1008.05 1008.20 1008.21 1005.88 1005.60 1005.02 1004.05 1003.52 1003.74 1004.47 1004.41 1004.19 1004.38 1005.91 1007.66 1009.43 1010.95 1011.77 1011.96 1013.14 1013.80 1013.97 1014.26 1014.65 1015.46 1015.63 1014.75 1012.80 1010.10 1009.38 1009.09 1009.59 1009.57 1008.76
1005.99 1005.93 1005.91 1005.89 1005.83 1005.82 1005.95 1006.06 1006.13 1006.28 1006.62 1007.03 1007.15 1007.30 1007.96 1007.66 1006.22 1005.53 1004.78 1003.88 1002.89 1003.30 1003.97 1004.64 1004.94 1005.35 1005.35 1007.42 1009.31 1010.20 1010.51 1010.54 1012.13 1012.99 1014.18 1014.78 1015.38 1015.53 1015.29 1014.27 1011.80 1009.55 1009.24 1009.36 1009.87 1009.21 1008.27
1005.19 1005.12 1005.12 1005.08 1005.10 1005.16 1005.18 1005.27 1005.35 1005.43 1005.68 1006.36 1006.65 1006.93 1006.98 1006.70 1005.84 1005.10 1004.35 1003.86 1003.08 1002.80 1003.73 1004.22 1004.68 1005.01 1006.20 1007.35 1008.46 1008.86 1009.28 1009.67 1010.46 1011.36 1012.01 1012.80 1014.15 1014.73 1014.70 1013.61 1011.24 1008.58 1009.29 1008.99 1007.93 1007.92 1008.14
1004.48 1004.41 1004.39 1004.37 1004.41 1004.47 1004.56 1004.57 1004.58 1004.60 1004.82 1005.40 1006.07 1006.10 1006.39 1006.71 1005.81 1004.91 1003.56 1003.59 1003.84 1003.72 1003.54 1003.49 1002.84 1003.70 1004.43 1005.96 1007.04 1007.58 1008.27 1008.68 1009.07 1010.59 1010.60 1010.89 1009.94 1010.85 1010.77 1009.40 1007.90 1007.22 1006.82 1006.91 1007.14 1007.46 1007.95
Wind_Speed
7 7 5 7 8 8 7 8 8 9 11 13 13 13 15 16 17 19 17 15 15 15 14 13 10 7 1 1 4 6 8 9 5 5 4 3 5 4 2 4 6 3 4 6 8 8 6
8 7 7 6 6 7 8 7 9 9 9 13 15 15 15 17 18 19 18 17 16 14 13 12 8 4 1 1 5 9 7 3 2 4 6 5 2 4 4 4 2 4 5 8 8 10 3
10 9 8 8 7 9 8 9 8 10 11 11 15 16 17 17 17 18 18 17 14 11 9 8 6 3 2 7 5 8 7 4 4 1 2 3 3 4 5 5 5 4 7 8 9 5 4
11 10 9 9 10 9 9 8 9 9 11 12 13 15 17 17 18 19 18 16 12 9 6 4 3 2 4 2 4 3 5 3 5 4 3 1 1 1 3 4 6 3 2 5 6 6 4
11 13 11 10 11 11 10 10 8 9 10 12 12 14 16 17 18 19 19 17 12 9 5 2 1 2 5 2 2 5 4 1 3 4 3 4 1 3 3 1 5 5 4 7 7 4 3
12 11 13 12 10 12 11 12 11 9 9 13 14 12 14 15 17 18 20 9 8 9 4 5 7 3 4 4 4 2 3 5 4 2 1 1 1 1 4 5 2 6 5 6 6 4 3
13 13 12 13 12 11 13 11 11 11 9 11 13 13 14 16 17 16 11 5 4 3 2 7 4 4 4 2 3 5 5 3 4 1 4 4 3 1 1 1 6 6 4 6 5 2 2
18 15 14 13 14 13 13 12 11 11 11 9 12 15 15 16 17 15 1 0 2 2 6 10 6 3 3 4 2 4 4 1 2 5 6 6 2 4 3 5 4 4 4 5 6 8 2
20 19 18 15 15 15 14 13 12 11 11 10 10 13 17 19 21 5 4 2 1 3 2 5 6 5 4 5 2 2 2 2 4 4 3 4 2 2 2 5 5 3 2 3 4 8 4
19 21 21 17 16 15 15 14 12 12 11 10 10 10 14 21 4 5 1 1 0 1 2 4 6 5 5 4 2 3 2 2 3 4 1 3 3 0 4 2 3 3 3 2 6 6 2
20 19 20 20 17 17 16 14 14 13 11 10 10 10 10 3 9 3 1 1 1 4 2 5 5 1 5 6 5 2 2 2 2 4 5 5 2 2 2 2 2 8 7 8 4 3 3
19 20 20 19 18 16 14 16 14 14 12 11 9 7 11 4 3 7 1 3 4 5 8 6 5 6 5 4 3 6 3 1 3 2 3 7 2 3 2 6 3 8 6 6 4 2 2
19 20 18 18 19 20 16 14 17 15 14 12 10 6 2 5 4 3 3 4 4 4 2 6 6 7 7 6 4 5 4 3 3 3 1 1 3 2 2 3 6 10 7 5 6 5 5
21 19 18 18 18 20 15 13 15 18 15 12 10 6 4 8 5 7 3 4 5 8 7 4 6 7 7 6 3 6 2 3 1 2 2 3 3 5 1 3 2 3 5 6 5 0 6
21 18 19 20 19 19 17 10 12 15 16 13 6 2 4 5 11 2 4 4 10 7 6 9 6 4 4 2 4 4 6 5 4 3 3 2 2 1 2 1 3 3 4 4 4 2 3
21 22 19 20 21 20 17 20 15 14 16 15 4 4 6 7 8 4 3 9 7 5 7 3 9 7 9 8 6 7 7 2 5 3 3 2 1 4 2 0 2 3 5 2 3 3 4
23 23 23 21 20 20 19 19 17 12 14 18 3 4 6 13 7 3 8 8 11 11 3 7 8 6 6 9 9 6 6 2 5 5 1 2 4 5 4 3 4 1 1 1 3 5 3
25 26 25 23 22 20 19 19 18 11 12 12 3 5 4 14 7 5 10 8 12 8 2 2 3 5 7 8 8 7 6 4 6 8 4 2 4 2 2 2 2 2 2 3 6 4 2
28 27 26 25 23 20 21 19 18 13 5 3 3 5 3 6 12 11 5 14 10 5 7 7 7 4 3 8 6 5 5 2 7 4 6 4 2 2 5 5 3 1 4 4 3 3 4
26 28 27 27 24 22 20 19 18 14 2 5 5 3 4 5 7 12 14 14 20 7 7 6 6 4 5 5 4 7 4 3 4 3 5 4 2 6 7 5 4 3 4 5 6 3 3
26 25 26 25 25 21 20 19 18 16 6 2 4 6 7 10 14 14 4 10 16 15 7 9 5 8 9 6 4 5 4 3 2 5 4 5 4 4 6 7 4 5 6 6 7 7 4
25 24 24 23 22 20 20 18 18 14 8 4 5 5 4 10 17 20 14 6 21 15 14 10 6 10 9 10 10 11 10 6 7 3 7 3 3 2 5 6 7 7 9 9 8 7 7
25 24 22 21 20 20 19 16 15 12 10 3 1 1 2 9 9 17 24 21 14 10 7 15 10 9 11 7 8 7 6 10 12 11 8 7 4 2 5 5 4 7 9 11 7 5 9
24 23 21 21 20 20 19 18 16 14 15 4 2 3 5 7 13 16 15 27 26 16 10 7 13 12 6 15 13 11 10 9 7 5 6 7 5 4 4 4 3 7 2 6 9 9 8
23 22 21 20 21 19 19 18 18 14 15 5 3 2 3 3 15 20 15 17 20 21 5 13 8 10 17 8 6 6 4 4 1 2 4 4 5 3 4 3 6 2 4 5 6 7 9
22 21 20 20 20 19 18 17 16 15 14 9 6 3 2 2 10 24 19 10 14 15 9 2 4 21 7 5 4 7 8 8 7 2 4 4 5 4 3 4 8 6 4 6 5 6 6
21 20 20 19 19 18 17 16 17 17 15 8 3 8 3 4 8 9 16 11 5 11 7 5 6 4 5 4 4 5 6 10 9 12 8 4 1 6 3 4 8 8 7 5 4 9 5
19 19 18 18 18 17 17 17 17 18 16 9 5 10 5 4 8 7 16 2 6 12 12 6 5 2 4 6 6 6 5 7 6 9 9 10 9 6 4 3 10 8 5 9 9 3 6
18 18 18 17 17 16 17 17 17 19 17 14 5 7 8 5 5 5 16 11 7 2 7 7 5 7 7 5 3 4 2 4 8 6 5 6 11 11 12 11 6 16 6 8 7 6 6
Wind_Direction
325 327 332 332 330 334 337 339 350 348 343 336 338 341 334 333 333 334 326 323 313 301 300 290 293 315 279 110 244 185 200 237 273 296 353 3 44 32 5 288 336 245 277 304 302 294 262
305 313 314 314 315 320 324 332 334 337 346 336 334 336 334 333 333 327 328 315 307 304 292 280 277 284 61 266 160 165 201 223 273 350 343 27 29 306 272 272 266 262 302 278 270 270 261
299 301 302 303 305 309 314 320 326 328 335 338 332 331 333 331 328 327 324 309 314 307 293 274 246 247 256 238 164 173 167 205 169 157 328 3 11 33 338 305 267 278 314 319 261 218 160
290 289 288 293 294 297 303 308 311 315 324 329 328 329 329 328 324 330 320 318 312 314 328 267 229 267 244 151 163 163 201 231 196 195 176 253 45 267 210 295 325 321 55 315 289 157 202
281 287 285 285 289 291 295 295 294 299 311 314 320 325 326 323 325 327 324 317 297 296 277 240 261 205 268 88 200 203 163 296 291 188 197 232 97 211 339 271 4 22 280 320 327 55 145
266 266 277 274 270 279 282 289 290 290 302 308 313 316 317 317 323 330 322 289 283 315 207 211 261 330 246 187 159 174 177 168 236 318 231 189 178 42 13 61 283 284 310 294 291 245 43
267 263 260 267 262 258 272 275 282 288 289 300 305 310 314 316 321 333 345 4 13 343 243 194 218 219 123 74 108 214 186 212 200 159 229 201 91 238 240 250 243 266 264 297 310 261 41
343 320 263 256 259 256 255 264 267 275 284 292 303 309 313 314 314 320 245 15 137 209 311 230 243 243 165 135 277 240 171 309 66 259 313 11 226 201 233 282 301 1 37 323 303 316 201
346 342 347 279 254 255 253 251 256 264 271 280 295 310 314 316 313 297 211 136 192 15 240 245 189 195 176 144 251 146 94 341 236 262 320 165 228 231 345 357 4 2 133 315 273 313 294
344 337 336 325 325 251 251 247 242 248 260 270 288 302 317 325 300 327 66 62 327 66 41 236 190 236 138 126 306 131 135 135 312 236 25 251 206 71 346 261 61 316 245 320 299 8 261
327 329 330 336 330 344 266 244 243 238 246 254 279 298 313 16 299 317 235 334 312 61 332 170 156 161 141 152 153 220 137 141 233 292 77 261 94 12 291 241 331 246 275 269 216 244 360
320 318 323 327 327 318 321 282 238 235 232 243 256 287 328 348 207 262 345 26 56 56 251 183 136 172 139 210 202 157 189 106 251 310 211 222 147 172 234 289 231 267 336 23 77 93 19
312 313 314 315 318 315 300 306 277 234 230 228 241 249 282 311 229 311 349 62 68 176 186 184 180 160 191 182 187 167 183 182 134 50 320 105 194 183 205 344 335 25 37 355 15 14 227
306 308 304 305 307 313 292 292 304 252 226 218 224 245 220 240 262 308 43 62 188 220 196 180 137 144 176 145 214 174 184 170 212 132 243 146 269 170 302 138 229 292 110 143 184 269 274
298 295 299 300 299 304 303 308 320 299 226 204 169 224 240 219 232 188 95 179 203 213 168 142 101 142 211 143 144 151 206 150 155 110 173 68 276 315 160 168 119 326 63 156 111 319 37
289 291 290 289 293 292 295 290 286 313 259 171 173 186 233 196 165 101 139 227 224 235 128 110 166 163 176 176 155 172 172 174 140 121 105 205 349 209 195 56 288 116 170 84 16 49 329
286 287 287 286 285 287 287 290 280 279 334 182 155 184 236 175 103 116 212 215 236 266 284 153 198 168 175 168 177 191 183 283 136 162 139 190 110 301 79 202 192 68 0 219 133 134 174
282 281 286 285 279 277 279 279 275 273 332 198 193 205 231 145 160 199 213 205 224 246 132 193 137 167 163 156 174 185 166 158 153 149 170 218 142 222 250 327 29 113 147 123 116 267 226
285 281 279 279 280 275 272 267 268 258 236 141 175 274 295 141 200 213 203 222 240 221 183 182 210 188 133 152 151 159 115 134 125 131 165 179 225 66 348 344 344 256 211 155 133 91 232
284 284 282 280 275 272 266 263 260 239 201 251 132 182 294 227 228 204 200 208 217 210 207 165 187 130 107 138 86 166 123 178 149 101 131 88 215 181 185 188 184 213 190 185 146 134 257
281 281 280 276 273 268 265 257 256 238 196 263 180 202 185 208 221 224 232 211 207 210 205 175 219 166 151 143 102 144 115 103 85 140 143 126 212 219 246 240 224 215 230 217 199 200 181
279 278 278 276 273 267 265 255 255 242 192 222 181 181 222 244 207 194 218 245 211 199 165 198 155 172 169 160 177 182 136 168 185 174 161 177 247 272 288 262 221 243 233 224 218 215 238
278 277 275 272 270 266 266 263 254 242 159 218 24 228 138 228 227 190 208 212 234 207 224 185 157 166 199 196 154 183 143 158 156 145 179 154 170 110 260 21 323 299 223 198 197 200 194
276 275 272 272 268 266 263 259 255 242 194 200 209 195 206 204 227 229 208 209 223 235 194 178 160 161 181 118 87 53 52 75 128 163 148 156 155 127 242 3 241 247 83 160 202 211 206
275 273 271 268 267 267 264 261 256 242 227 205 175 183 279 231 211 241 232 201 211 235 230 186 184 159 160 89 95 85 15 47 213 62 132 111 133 150 150 207 285 286 215 189 178 248 193
274 271 269 267 267 267 265 261 257 250 235 219 215 146 168 299 210 218 238 240 199 210 211 215 348 148 125 116 121 156 175 174 190 130 13 86 87 123 151 167 214 235 185 128 84 281 204
274 269 267 265 266 267 266 260 252 250 236 222 219 169 168 208 268 265 225 241 183 197 184 137 165 153 92 133 147 161 203 156 162 165 164 135 120 174 203 227 282 233 167 117 117 239 172
275 268 269 266 266 265 266 260 255 249 237 217 219 185 196 224 263 266 233 129 336 184 184 195 109 275 97 153 155 201 151 200 130 158 171 158 146 179 164 185 270 154 80 163 208 171 165
275 270 269 268 264 264 261 260 259 254 241 213 213 186 200 210 260 273 237 227 200 211 227 196 177 155 157 137 192 138 161 135 147 201 170 180 181 173 177 206 223 186 175 205 170 154 183